Location: A�t �Alizem
(31.2076°N, 8.7872°W)
Time: 05:21:36
(UTC+00:00)

Lacrosse 5 rocket - Pass Details

Date: 27 November 2020
Orbit: 461 x 634 km, 57.0° (Epoch: 25 January)

Event Time Altitude Azimuth Distance (km) Brightness Sun altitude
Rises 18:40:16 0° 262° (W) 2,543 6.6 -14.4°
Reaches altitude 10° 18:43:36 10° 293° (WNW) 1,637 4.5 -15.1°
Maximum altitude 18:45:09 12° 319° (NW) 1,494 3.9 -15.4°
Drops below altitude 10° 18:46:41 10° 344° (NNW) 1,621 3.7 -15.7°
Enters shadow 18:48:24 - 4° (N) 2,010 4.0 -16.0°
